McCall, ID

3:38 AM MST on January 21, 2017 (GMT -0700)
McCall

Weather History for KMYL - July, 2014

Change the Weather History Date:

Sunday, July 20, 2014

  Actual Average Record
Temperature  
Mean Temperature 66 °F 62 °F  
Max Temperature 85 °F 80 °F 98 °F (1936)
Min Temperature 47 °F 44 °F 32 °F (1996)
Degree Days  
Heating Degree Days 0 4  
Month to date heating degree days 2 111  
Since 1 June heating degree days 316 478  
Since 1 July heating degree days 2 111  
Cooling Degree Days 1 1  
Month to date cooling degree days 93 5  
Year to date cooling degree days 93 6  
Since 1 June cooling degree days 93 6  
Growing Degree Days 16 (Base 50)    
Moisture  
Dew Point 41 °F    
Average Humidity 49    
Maximum Humidity 80    
Minimum Humidity 17    
Precipitation  
Precipitation T in 0.02 in 0.26 in (1973)
Month to date precipitation 0.01 0.53  
Year to date precipitation 15.20 12.17  
Sea Level Pressure  
Sea Level Pressure 29.85 in    
Wind  
Wind Speed 7 mph (SSE)    
Max Wind Speed 22 mph    
Max Gust Speed 31 mph    
Visibility 10 miles    
Events      
T = Trace of Precipitation, MM = Missing Value Source: NWS Daily Summary

Daily Weather History Graph

Daily Weather History Graph

Search for Another Location

Airport or City:

Trip Planner

Search our weather history database for the weather conditions in past years. The results will help you decide how hot, cold, wet, or windy it might be!

Date:

Astronomy

Jul. 20, 2014 Rise Set
Actual Time 6:17 AM MDT 9:23 PM MDT
Civil Twilight 5:42 AM MDT 9:58 PM MDT
Nautical Twilight 4:56 AM MDT 10:43 PM MDT
Astronomical Twilight 4:01 AM MDT 11:38 PM MDT
Moon 1:37 AM MDT (7/20) 4:07 PM MDT (7/20)
Length of Visible Light 16h 16m
Length of Day
15h 06m
Waning Crescent, 33% of the Moon is Illuminated
Jul 20
Waning Crescent
Jul 26
New
Aug 3
First Quarter
Aug 10
Full
Aug 17
Last Quarter

Hourly Weather History & Observations

Time (MDT) Temp. Dew Point Humidity Pressure Visibility Wind Dir Wind Speed Gust Speed Precip Events Conditions
12:51 AM 61.0 °F 45.0 °F 56% 29.90 in 10.0 mi Calm Calm - N/A   Clear
1:51 AM 55.9 °F 44.1 °F 64% 29.91 in 10.0 mi ENE 3.5 mph - N/A   Clear
2:51 AM 52.0 °F 43.0 °F 71% 29.91 in 10.0 mi East 5.8 mph - N/A   Clear
3:51 AM 51.1 °F 42.1 °F 71% 29.90 in 10.0 mi North 3.5 mph - N/A   Clear
4:51 AM 48.9 °F 43.0 °F 80% 29.91 in 10.0 mi Calm Calm - N/A   Clear
5:51 AM 48.0 °F 41.0 °F 77% 29.91 in 10.0 mi Calm Calm - N/A   Clear
6:51 AM 48.0 °F 41.0 °F 77% 29.92 in 10.0 mi NE 4.6 mph - N/A   Clear
7:51 AM 53.1 °F 44.1 °F 71% 29.91 in 10.0 mi Calm Calm - N/A   Clear
8:51 AM 57.9 °F 46.9 °F 67% 29.91 in 10.0 mi Calm Calm - N/A   Clear
9:51 AM 64.0 °F 46.9 °F 54% 29.90 in 10.0 mi Calm Calm - N/A   Clear
10:51 AM 71.1 °F 42.1 °F 35% 29.90 in 10.0 mi Variable 3.5 mph - N/A   Clear
11:51 AM 73.9 °F 39.9 °F 29% 29.89 in 10.0 mi SSE 8.1 mph - N/A   Clear
12:51 PM 79.0 °F 37.0 °F 22% 29.86 in 10.0 mi SSE 13.8 mph 20.7 mph N/A   Clear
1:51 PM 82.0 °F 37.0 °F 20% 29.85 in 10.0 mi SW 11.5 mph 19.6 mph N/A   Clear
2:51 PM 84.0 °F 37.9 °F 19% 29.83 in 10.0 mi SW 13.8 mph - N/A   Clear
3:51 PM 84.0 °F 36.0 °F 18% 29.81 in 10.0 mi SW 11.5 mph 21.9 mph N/A   Clear
4:51 PM 84.9 °F 37.0 °F 18% 29.80 in 10.0 mi SSW 18.4 mph 27.6 mph N/A   Clear
5:51 PM 84.0 °F 36.0 °F 18% 29.78 in 10.0 mi South 15.0 mph - N/A   Clear
6:51 PM 82.9 °F 36.0 °F 19% 29.75 in 10.0 mi SW 12.7 mph 19.6 mph N/A   Clear
8:51 PM 77.0 °F 43.0 °F 30% 29.72 in 10.0 mi SSE 3.5 mph - N/A   Clear
9:51 PM 70.0 °F 44.1 °F 39% 29.73 in 10.0 mi ENE 3.5 mph - N/A   Clear
10:51 PM 68.0 °F 46.0 °F 45% 29.73 in 10.0 mi Variable 3.5 mph - N/A   Mostly Cloudy
11:51 PM 71.1 °F 45.0 °F 39% 29.75 in 10.0 mi SSE 12.7 mph - N/A   Overcast